Time,TemperatureF,DewpointF,PressureIn,WindDirection,WindDirectionDegrees,WindSpeedMPH,WindSpeedGustMPH,Humidity,HourlyPrecipIn,Conditions,Clouds,dailyrainin,SoftwareType,DateUTC
2013-03-30 00:02:00,39.0,35.0,29.97,SW,226,7.0,12.0,87,0.00,,,0.00,,2013-03-30 05:02:00,
2013-03-30 00:12:00,39.0,35.0,29.97,SW,226,7.0,12.0,87,0.00,,,0.00,,2013-03-30 05:12:00,
2013-03-30 00:22:00,39.0,36.0,29.97,SW,225,5.0,7.0,88,0.00,,,0.00,,2013-03-30 05:22:00,
2013-03-30 00:32:00,39.0,36.0,29.97,SW,222,4.0,7.0,88,0.00,,,0.00,,2013-03-30 05:32:00,
2013-03-30 00:42:00,39.0,36.0,29.97,SW,222,4.0,7.0,88,0.00,,,0.00,,2013-03-30 05:42:00,
2013-03-30 00:52:00,39.0,36.0,29.96,SW,226,0.0,2.0,89,0.00,,,0.00,,2013-03-30 05:52:00,
2013-03-30 01:02:00,38.0,35.0,29.96,SW,226,0.0,0.0,88,0.00,,,0.00,,2013-03-30 06:02:00,
2013-03-30 01:11:00,38.0,35.0,29.96,SW,226,0.0,0.0,88,0.00,,,0.00,,2013-03-30 06:11:00,
2013-03-30 01:22:00,38.0,35.0,29.95,SW,226,0.0,0.0,88,0.00,,,0.00,,2013-03-30 06:22:00,
2013-03-30 01:32:00,38.0,35.0,29.94,SE,146,0.0,2.0,90,0.00,,,0.00,,2013-03-30 06:32:00,
2013-03-30 01:42:00,38.0,35.0,29.94,SE,146,0.0,2.0,90,0.00,,,0.00,,2013-03-30 06:42:00,
2013-03-30 01:52:00,38.0,35.0,29.93,SE,146,0.0,0.0,90,0.00,,,0.00,,2013-03-30 06:52:00,
2013-03-30 02:02:00,37.0,34.0,29.93,NE,48,1.0,2.0,90,0.00,,,0.00,,2013-03-30 07:02:00,
2013-03-30 02:12:00,37.0,34.0,29.93,NE,48,1.0,2.0,90,0.00,,,0.00,,2013-03-30 07:12:00,
2013-03-30 02:22:00,37.0,35.0,29.93,NE,48,0.0,1.0,91,0.00,,,0.00,,2013-03-30 07:22:00,
2013-03-30 02:32:00,37.0,35.0,29.91,NE,48,0.0,1.0,92,0.00,,,0.00,,2013-03-30 07:32:00,
2013-03-30 02:42:00,37.0,35.0,29.91,NE,48,0.0,1.0,92,0.00,,,0.00,,2013-03-30 07:42:00,
2013-03-30 02:52:00,38.0,36.0,29.90,NE,40,1.0,2.0,92,0.01,,,0.01,,2013-03-30 07:52:00,
2013-03-30 03:02:00,38.0,36.0,29.89,SSE,156,0.0,2.0,93,0.01,,,0.01,,2013-03-30 08:02:00,
2013-03-30 03:12:00,38.0,36.0,29.89,SSE,156,0.0,2.0,93,0.01,,,0.01,,2013-03-30 08:12:00,
2013-03-30 03:21:00,37.0,35.0,29.91,South,180,1.0,2.0,92,0.01,,,0.01,,2013-03-30 08:21:00,
2013-03-30 03:32:00,36.0,34.0,29.91,NNW,336,0.0,3.0,92,0.03,,,0.03,,2013-03-30 08:32:00,
2013-03-30 03:42:00,36.0,34.0,29.91,NNW,336,0.0,3.0,92,0.03,,,0.03,,2013-03-30 08:42:00,
2013-03-30 03:53:00,37.0,35.0,29.89,North,355,0.0,2.0,93,0.07,,,0.08,,2013-03-30 08:53:00,
2013-03-30 04:02:00,37.0,35.0,29.89,WSW,248,1.0,3.0,93,0.08,,,0.09,,2013-03-30 09:02:00,
2013-03-30 04:12:00,37.0,35.0,29.88,WSW,249,0.0,1.0,93,0.13,,,0.14,,2013-03-30 09:12:00,
2013-03-30 04:22:00,37.0,35.0,29.88,WSW,249,0.0,1.0,93,0.13,,,0.14,,2013-03-30 09:22:00,
2013-03-30 04:33:00,37.0,35.0,29.88,WSW,249,0.0,0.0,93,0.11,,,0.14,,2013-03-30 09:33:00,
2013-03-30 04:42:00,37.0,35.0,29.88,WSW,249,0.0,0.0,93,0.11,,,0.14,,2013-03-30 09:42:00,
2013-03-30 04:53:00,36.0,34.0,29.87,WSW,249,0.0,0.0,93,0.08,,,0.16,,2013-03-30 09:53:00,
2013-03-30 05:02:00,36.0,34.0,29.86,WSW,249,0.0,1.0,93,0.07,,,0.16,,2013-03-30 10:02:00,
2013-03-30 05:13:00,36.0,34.0,29.86,WSW,249,0.0,1.0,93,0.07,,,0.16,,2013-03-30 10:13:00,
2013-03-30 05:23:00,36.0,34.0,29.85,WSW,249,0.0,1.0,94,0.02,,,0.16,,2013-03-30 10:23:00,
2013-03-30 05:33:00,37.0,35.0,29.85,WSW,249,0.0,1.0,94,0.02,,,0.16,,2013-03-30 10:33:00,
2013-03-30 05:42:00,37.0,35.0,29.85,WSW,249,0.0,1.0,94,0.02,,,0.16,,2013-03-30 10:42:00,
2013-03-30 05:52:00,36.0,34.0,29.84,West,274,1.0,2.0,94,0.00,,,0.16,,2013-03-30 10:52:00,
2013-03-30 06:03:00,36.0,34.0,29.84,West,273,0.0,1.0,94,0.00,,,0.16,,2013-03-30 11:03:00,
2013-03-30 06:12:00,36.0,34.0,29.84,West,273,0.0,1.0,94,0.00,,,0.16,,2013-03-30 11:12:00,
2013-03-30 06:22:00,35.0,33.0,29.84,West,274,0.0,0.0,94,0.00,,,0.16,,2013-03-30 11:22:00,
2013-03-30 06:33:00,36.0,34.0,29.84,West,274,0.0,0.0,94,0.00,,,0.16,,2013-03-30 11:33:00,
2013-03-30 06:42:00,36.0,34.0,29.84,West,274,0.0,0.0,94,0.00,,,0.16,,2013-03-30 11:42:00,
2013-03-30 06:53:00,35.0,33.0,29.84,West,273,0.0,0.0,94,0.00,,,0.16,,2013-03-30 11:53:00,
2013-03-30 07:02:00,35.0,33.0,29.84,West,273,0.0,0.0,94,0.00,,,0.16,,2013-03-30 12:02:00,
2013-03-30 07:12:00,35.0,33.0,29.84,West,273,0.0,0.0,94,0.00,,,0.16,,2013-03-30 12:12:00,
2013-03-30 07:22:00,35.0,33.0,29.84,West,274,0.0,0.0,94,0.00,,,0.16,,2013-03-30 12:22:00,
2013-03-30 07:32:00,35.0,33.0,29.84,West,274,0.0,0.0,94,0.00,,,0.16,,2013-03-30 12:32:00,
2013-03-30 07:42:00,35.0,33.0,29.84,West,274,0.0,0.0,94,0.00,,,0.16,,2013-03-30 12:42:00,
2013-03-30 07:53:00,35.0,33.0,29.84,West,274,0.0,0.0,94,0.00,,,0.16,,2013-03-30 12:53:00,
2013-03-30 08:02:00,35.0,33.0,29.84,West,274,0.0,0.0,94,0.00,,,0.16,,2013-03-30 13:02:00,
2013-03-30 08:12:00,35.0,33.0,29.84,West,274,0.0,0.0,94,0.00,,,0.16,,2013-03-30 13:12:00,
2013-03-30 08:22:00,36.0,34.0,29.84,West,274,0.0,0.0,94,0.00,,,0.16,,2013-03-30 13:22:00,
2013-03-30 08:32:00,36.0,34.0,29.84,West,274,0.0,0.0,94,0.00,,,0.16,,2013-03-30 13:32:00,
2013-03-30 08:42:00,36.0,34.0,29.84,West,274,0.0,0.0,94,0.00,,,0.16,,2013-03-30 13:42:00,
2013-03-30 08:52:00,37.0,35.0,29.85,West,273,0.0,0.0,94,0.00,,,0.16,,2013-03-30 13:52:00,
2013-03-30 09:02:00,37.0,36.0,29.85,West,274,0.0,0.0,95,0.00,,,0.16,,2013-03-30 14:02:00,
2013-03-30 09:11:00,37.0,36.0,29.85,West,274,0.0,0.0,95,0.00,,,0.16,,2013-03-30 14:11:00,
2013-03-30 09:22:00,38.0,37.0,29.85,West,274,0.0,1.0,95,0.00,,,0.16,,2013-03-30 14:22:00,
2013-03-30 09:32:00,38.0,37.0,29.85,West,273,0.0,2.0,95,0.00,,,0.16,,2013-03-30 14:32:00,
2013-03-30 09:42:00,38.0,37.0,29.85,West,273,0.0,2.0,95,0.00,,,0.16,,2013-03-30 14:42:00,
2013-03-30 09:52:00,39.0,38.0,29.85,West,273,0.0,1.0,95,0.00,,,0.16,,2013-03-30 14:52:00,
2013-03-30 10:02:00,39.0,38.0,29.85,West,273,0.0,2.0,95,0.00,,,0.16,,2013-03-30 15:02:00,
2013-03-30 10:12:00,39.0,38.0,29.85,West,273,0.0,2.0,95,0.00,,,0.16,,2013-03-30 15:12:00,
2013-03-30 10:22:00,40.0,39.0,29.85,NNW,344,0.0,2.0,95,0.00,,,0.16,,2013-03-30 15:22:00,
2013-03-30 10:33:00,41.0,40.0,29.85,ENE,72,1.0,2.0,95,0.00,,,0.16,,2013-03-30 15:33:00,
2013-03-30 10:43:00,41.0,40.0,29.85,ENE,72,1.0,2.0,95,0.00,,,0.16,,2013-03-30 15:43:00,
2013-03-30 10:53:00,41.0,40.0,29.85,NNE,19,0.0,3.0,95,0.00,,,0.16,,2013-03-30 15:53:00,
2013-03-30 11:03:00,41.0,40.0,29.85,ENE,76,1.0,3.0,95,0.00,,,0.16,,2013-03-30 16:03:00,
2013-03-30 11:13:00,42.0,40.0,29.85,WNW,300,1.0,4.0,94,0.00,,,0.16,,2013-03-30 16:13:00,
2013-03-30 11:23:00,42.0,40.0,29.85,WNW,300,1.0,4.0,94,0.00,,,0.16,,2013-03-30 16:23:00,
2013-03-30 11:33:00,42.0,40.0,29.85,NNW,333,1.0,4.0,92,0.00,,,0.16,,2013-03-30 16:33:00,
2013-03-30 11:43:00,42.0,40.0,29.85,NNW,333,1.0,4.0,92,0.00,,,0.16,,2013-03-30 16:43:00,
2013-03-30 11:52:00,43.0,40.0,29.85,WSW,244,0.0,4.0,88,0.00,,,0.16,,2013-03-30 16:52:00,
2013-03-30 12:02:00,45.0,40.0,29.85,SW,234,2.0,4.0,83,0.00,,,0.16,,2013-03-30 17:02:00,
2013-03-30 12:13:00,45.0,40.0,29.85,SW,234,2.0,4.0,83,0.00,,,0.16,,2013-03-30 17:13:00,
2013-03-30 12:22:00,46.0,40.0,29.85,NW,325,1.0,4.0,80,0.00,,,0.16,,2013-03-30 17:22:00,
2013-03-30 12:32:00,47.0,40.0,29.85,WSW,245,1.0,4.0,76,0.00,,,0.16,,2013-03-30 17:32:00,
2013-03-30 12:42:00,47.0,40.0,29.85,WSW,245,1.0,4.0,76,0.00,,,0.16,,2013-03-30 17:42:00,
2013-03-30 12:52:00,49.0,38.0,29.85,NW,325,2.0,6.0,65,0.00,,,0.16,,2013-03-30 17:52:00,
2013-03-30 13:03:00,50.0,38.0,29.85,SE,141,1.0,8.0,62,0.00,,,0.16,,2013-03-30 18:03:00,
2013-03-30 13:12:00,52.0,36.0,29.85,NE,46,1.0,5.0,55,0.00,,,0.16,,2013-03-30 18:12:00,
2013-03-30 13:22:00,52.0,36.0,29.85,NE,46,1.0,5.0,55,0.00,,,0.16,,2013-03-30 18:22:00,
2013-03-30 13:32:00,52.0,35.0,29.84,NNE,19,2.0,4.0,52,0.00,,,0.16,,2013-03-30 18:32:00,
2013-03-30 13:42:00,52.0,35.0,29.84,NNE,19,2.0,4.0,52,0.00,,,0.16,,2013-03-30 18:42:00,
2013-03-30 13:53:00,52.0,35.0,29.84,NE,55,2.0,8.0,52,0.00,,,0.16,,2013-03-30 18:53:00,
2013-03-30 14:02:00,52.0,35.0,29.84,SE,128,1.0,8.0,52,0.00,,,0.16,,2013-03-30 19:02:00,
2013-03-30 14:13:00,52.0,35.0,29.84,SE,128,1.0,8.0,52,0.00,,,0.16,,2013-03-30 19:13:00,
2013-03-30 14:22:00,53.0,35.0,29.84,NNW,344,1.0,4.0,51,0.00,,,0.16,,2013-03-30 19:22:00,
2013-03-30 14:32:00,54.0,35.0,29.83,NW,311,1.0,6.0,49,0.00,,,0.16,,2013-03-30 19:32:00,
2013-03-30 14:42:00,54.0,35.0,29.83,NW,311,1.0,6.0,49,0.00,,,0.16,,2013-03-30 19:42:00,
2013-03-30 14:53:00,55.0,35.0,29.83,NNE,12,1.0,5.0,47,0.00,,,0.16,,2013-03-30 19:53:00,
2013-03-30 15:02:00,55.0,35.0,29.83,NE,36,1.0,4.0,47,0.00,,,0.16,,2013-03-30 20:02:00,
2013-03-30 15:12:00,55.0,35.0,29.83,NE,36,1.0,4.0,47,0.00,,,0.16,,2013-03-30 20:12:00,
2013-03-30 15:22:00,55.0,35.0,29.83,SSE,165,1.0,6.0,46,0.00,,,0.16,,2013-03-30 20:22:00,
2013-03-30 15:32:00,55.0,35.0,29.83,SSE,147,0.0,5.0,47,0.00,,,0.16,,2013-03-30 20:32:00,
2013-03-30 15:42:00,55.0,35.0,29.83,SSE,147,0.0,5.0,47,0.00,,,0.16,,2013-03-30 20:42:00,
2013-03-30 15:53:00,55.0,35.0,29.83,NW,324,2.0,6.0,46,0.00,,,0.16,,2013-03-30 20:53:00,
2013-03-30 16:02:00,54.0,34.0,29.83,North,5,4.0,7.0,47,0.00,,,0.16,,2013-03-30 21:02:00,
2013-03-30 16:12:00,54.0,34.0,29.83,North,5,4.0,7.0,47,0.00,,,0.16,,2013-03-30 21:12:00,
2013-03-30 16:22:00,53.0,34.0,29.83,SW,226,2.0,4.0,48,0.00,,,0.16,,2013-03-30 21:22:00,
2013-03-30 16:33:00,54.0,35.0,29.82,WNW,287,3.0,7.0,48,0.00,,,0.16,,2013-03-30 21:33:00,
2013-03-30 16:43:00,54.0,35.0,29.82,WNW,287,3.0,7.0,48,0.00,,,0.16,,2013-03-30 21:43:00,
2013-03-30 16:53:00,54.0,35.0,29.82,NNE,13,2.0,7.0,49,0.00,,,0.16,,2013-03-30 21:53:00,
2013-03-30 17:03:00,53.0,34.0,29.82,NW,325,2.0,7.0,49,0.00,,,0.16,,2013-03-30 22:03:00,
2013-03-30 17:13:00,53.0,34.0,29.82,NW,325,2.0,7.0,49,0.00,,,0.16,,2013-03-30 22:13:00,
2013-03-30 17:23:00,52.0,34.0,29.81,WSW,244,3.0,7.0,50,0.00,,,0.16,,2013-03-30 22:23:00,
2013-03-30 17:33:00,52.0,34.0,29.81,SSW,213,2.0,10.0,51,0.00,,,0.16,,2013-03-30 22:33:00,
2013-03-30 17:43:00,52.0,34.0,29.81,SSW,213,2.0,10.0,51,0.00,,,0.16,,2013-03-30 22:43:00,
2013-03-30 17:53:00,52.0,34.0,29.81,West,267,1.0,6.0,51,0.00,,,0.16,,2013-03-30 22:53:00,
2013-03-30 18:02:00,51.0,34.0,29.80,WSW,245,2.0,7.0,52,0.00,,,0.16,,2013-03-30 23:02:00,
2013-03-30 18:12:00,51.0,34.0,29.80,WSW,245,2.0,7.0,52,0.00,,,0.16,,2013-03-30 23:12:00,
2013-03-30 18:22:00,50.0,34.0,29.81,WSW,248,2.0,8.0,54,0.00,,,0.16,,2013-03-30 23:22:00,
2013-03-30 18:32:00,49.0,34.0,29.81,WSW,244,1.0,7.0,57,0.00,,,0.16,,2013-03-30 23:32:00,
2013-03-30 18:42:00,49.0,34.0,29.81,WSW,244,1.0,7.0,57,0.00,,,0.16,,2013-03-30 23:42:00,
2013-03-30 18:52:00,49.0,35.0,29.80,ESE,108,0.0,6.0,59,0.00,,,0.16,,2013-03-30 23:52:00,
2013-03-30 19:02:00,48.0,34.0,29.81,WSW,246,1.0,6.0,59,0.00,,,0.16,,2013-03-31 00:02:00,
2013-03-30 19:12:00,48.0,34.0,29.81,WSW,246,1.0,6.0,59,0.00,,,0.16,,2013-03-31 00:12:00,
2013-03-30 19:22:00,47.0,35.0,29.81,WSW,250,0.0,3.0,62,0.00,,,0.16,,2013-03-31 00:22:00,
2013-03-30 19:32:00,46.0,34.0,29.81,WNW,298,1.0,3.0,63,0.00,,,0.16,,2013-03-31 00:32:00,
2013-03-30 19:42:00,46.0,34.0,29.81,WNW,298,1.0,3.0,63,0.00,,,0.16,,2013-03-31 00:42:00,
2013-03-30 19:53:00,45.0,34.0,29.81,SW,221,0.0,3.0,66,0.00,,,0.16,,2013-03-31 00:53:00,
2013-03-30 20:02:00,44.0,34.0,29.81,SW,232,0.0,2.0,67,0.00,,,0.16,,2013-03-31 01:02:00,
2013-03-30 20:12:00,44.0,34.0,29.81,SW,232,0.0,2.0,67,0.00,,,0.16,,2013-03-31 01:12:00,
2013-03-30 20:22:00,42.0,32.0,29.81,WSW,252,0.0,2.0,67,0.00,,,0.16,,2013-03-31 01:22:00,
2013-03-30 20:32:00,42.0,32.0,29.81,NE,44,0.0,2.0,67,0.00,,,0.16,,2013-03-31 01:32:00,
2013-03-30 20:42:00,42.0,32.0,29.81,NE,44,0.0,2.0,67,0.00,,,0.16,,2013-03-31 01:42:00,
2013-03-30 20:53:00,41.0,31.0,29.82,WSW,252,0.0,4.0,67,0.00,,,0.16,,2013-03-31 01:53:00,
2013-03-30 21:02:00,40.0,30.0,29.82,WSW,240,0.0,2.0,68,0.00,,,0.16,,2013-03-31 02:02:00,
2013-03-30 21:12:00,40.0,30.0,29.82,WSW,240,0.0,2.0,68,0.00,,,0.16,,2013-03-31 02:12:00,
2013-03-30 21:22:00,39.0,30.0,29.83,SSW,211,0.0,1.0,69,0.00,,,0.16,,2013-03-31 02:22:00,
2013-03-30 21:32:00,38.0,29.0,29.83,SSW,209,0.0,1.0,70,0.00,,,0.16,,2013-03-31 02:32:00,
2013-03-30 21:42:00,38.0,29.0,29.83,SSW,209,0.0,1.0,70,0.00,,,0.16,,2013-03-31 02:42:00,
2013-03-30 21:52:00,37.0,29.0,29.83,WSW,249,0.0,1.0,73,0.00,,,0.16,,2013-03-31 02:52:00,
2013-03-30 22:02:00,37.0,29.0,29.83,SW,236,0.0,1.0,73,0.00,,,0.16,,2013-03-31 03:02:00,
2013-03-30 22:12:00,37.0,29.0,29.83,SW,236,0.0,1.0,73,0.00,,,0.16,,2013-03-31 03:12:00,
2013-03-30 22:22:00,36.0,29.0,29.83,SW,227,0.0,2.0,75,0.00,,,0.16,,2013-03-31 03:22:00,
2013-03-30 22:33:00,36.0,29.0,29.83,NW,307,0.0,3.0,76,0.00,,,0.16,,2013-03-31 03:33:00,
2013-03-30 22:43:00,36.0,29.0,29.83,NW,307,0.0,3.0,76,0.00,,,0.16,,2013-03-31 03:43:00,
2013-03-30 22:54:00,35.0,29.0,29.82,West,271,0.0,3.0,78,0.00,,,0.16,,2013-03-31 03:54:00,
2013-03-30 23:02:00,35.0,-99.9,29.82,West,278,0.0,2.0,78,0.00,,,0.16,,2013-03-31 04:02:00,
2013-03-30 23:13:00,35.0,29.0,29.82,West,278,0.0,2.0,78,0.00,,,0.16,,2013-03-31 04:13:00,
2013-03-30 23:23:00,34.0,28.0,29.82,WSW,253,1.0,3.0,79,0.00,,,0.16,,2013-03-31 04:23:00,
2013-03-30 23:32:00,34.0,28.0,29.82,West,259,1.0,6.0,80,0.00,,,0.16,,2013-03-31 04:32:00,
2013-03-30 23:42:00,34.0,28.0,29.82,West,259,1.0,6.0,80,0.00,,,0.16,,2013-03-31 04:42:00,
2013-03-30 23:52:00,34.0,29.0,29.82,West,279,1.0,5.0,82,0.00,,,0.16,,2013-03-31 04:52:00,